TPC74 GCXO-LPMA

Flight info

Callsign TPC74
Flight time N/A
Altitude 25000
Route BIMBO DCT EKNOT
Aircraft PC24/M-SBDGIRWY/LB2

Departure

Time N/A
Airport Tenerife Norte-Ciudad de La Laguna Airport (GCXO)

Arrival

Time 2026-05-07 00:22
Airport Cristiano Ronaldo International Airport (LPMA)
Time Latitude Longitude Altitude Speed Heading
2026-05-06 23:32 29.06724 -16.33145 24979 ft 278 kts 356°
2026-05-06 23:32 29.08657 -16.33144 24981 ft 278 kts 356°
2026-05-06 23:33 29.10594 -16.33143 24988 ft 279 kts 356°
2026-05-06 23:33 29.12537 -16.33148 24993 ft 279 kts 356°
2026-05-06 23:33 29.14482 -16.33156 24998 ft 280 kts 356°
2026-05-06 23:33 29.16431 -16.33166 24996 ft 281 kts 356°
2026-05-06 23:34 29.18285 -16.33176 24998 ft 281 kts 356°
2026-05-06 23:34 29.20268 -16.33185 24998 ft 281 kts 356°
2026-05-06 23:34 29.22221 -16.33196 24996 ft 281 kts 356°
2026-05-06 23:34 29.24178 -16.33204 24995 ft 281 kts 356°
2026-05-06 23:35 29.26131 -16.33212 24994 ft 281 kts 356°
2026-05-06 23:35 29.28084 -16.33220 25001 ft 281 kts 356°
2026-05-06 23:35 29.30036 -16.33228 24999 ft 281 kts 356°
2026-05-06 23:35 29.31985 -16.33235 24999 ft 281 kts 356°
2026-05-06 23:36 29.33941 -16.33241 24998 ft 281 kts 356°
2026-05-06 23:36 29.35892 -16.33248 24998 ft 281 kts 356°
2026-05-06 23:36 29.37817 -16.33254 25001 ft 281 kts 356°
2026-05-06 23:36 29.39797 -16.33260 24999 ft 281 kts 356°
2026-05-06 23:37 29.41722 -16.33269 24999 ft 280 kts 356°
2026-05-06 23:37 29.43665 -16.33276 24998 ft 279 kts 356°
2026-05-06 23:37 29.45605 -16.33284 24999 ft 278 kts 356°
2026-05-06 23:37 29.47542 -16.33292 24997 ft 278 kts 356°
2026-05-06 23:38 29.49503 -16.33298 25000 ft 279 kts 356°
2026-05-06 23:38 29.51422 -16.33306 25001 ft 279 kts 356°
2026-05-06 23:38 29.53369 -16.33313 25003 ft 280 kts 356°
2026-05-06 23:38 29.55318 -16.33320 25003 ft 280 kts 356°
2026-05-06 23:39 29.57270 -16.33326 25004 ft 281 kts 356°
2026-05-06 23:39 29.59226 -16.33332 25005 ft 281 kts 356°
2026-05-06 23:39 29.61187 -16.33339 25007 ft 282 kts 356°
2026-05-06 23:39 29.63150 -16.33345 25006 ft 282 kts 356°
2026-05-06 23:40 29.65113 -16.33351 25007 ft 283 kts 356°
2026-05-06 23:40 29.67082 -16.33355 25005 ft 283 kts 356°
2026-05-06 23:40 29.69054 -16.33361 25009 ft 284 kts 356°
2026-05-06 23:40 29.71032 -16.33365 25004 ft 284 kts 356°
2026-05-06 23:41 29.73008 -16.33368 25008 ft 284 kts 356°
2026-05-06 23:41 29.74985 -16.33371 25007 ft 284 kts 356°
2026-05-06 23:41 29.76959 -16.33374 25005 ft 283 kts 356°
2026-05-06 23:41 29.78925 -16.33375 25003 ft 282 kts 356°
2026-05-06 23:42 29.80891 -16.33375 25001 ft 282 kts 356°
2026-05-06 23:42 29.82850 -16.33375 25001 ft 282 kts 356°
2026-05-06 23:42 29.84811 -16.33375 25001 ft 281 kts 356°
2026-05-06 23:42 29.86770 -16.33374 24999 ft 282 kts 356°
2026-05-06 23:43 29.88718 -16.33493 24993 ft 279 kts 346°
2026-05-06 23:43 29.90586 -16.34058 25002 ft 278 kts 341°
2026-05-06 23:43 29.92459 -16.34606 24540 ft 287 kts 345°
2026-05-06 23:43 29.94509 -16.35000 23304 ft 313 kts 349°
2026-05-06 23:44 29.96690 -16.35320 22602 ft 312 kts 349°
2026-05-06 23:44 29.98821 -16.35704 21959 ft 308 kts 347°
2026-05-06 23:44 30.00924 -16.36124 21320 ft 306 kts 347°
2026-05-06 23:44 30.03017 -16.36523 20689 ft 304 kts 348°
2026-05-06 23:45 30.05089 -16.36902 20186 ft 298 kts 348°
2026-05-06 23:45 30.07097 -16.37273 20007 ft 286 kts 347°
2026-05-06 23:45 30.09040 -16.37639 19999 ft 284 kts 347°
2026-05-06 23:45 30.10349 -16.37887 20002 ft 292 kts 347°
2026-05-06 23:46 30.12380 -16.38271 20018 ft 300 kts 347°
2026-05-06 23:46 30.14456 -16.38656 20014 ft 303 kts 347°
2026-05-06 23:46 30.16536 -16.39044 20016 ft 302 kts 347°
2026-05-06 23:46 30.19278 -16.39564 20018 ft 300 kts 347°
2026-05-06 23:47 30.20669 -16.39837 20017 ft 300 kts 347°
2026-05-06 23:47 30.22733 -16.40218 20015 ft 302 kts 348°
2026-05-06 23:47 30.24820 -16.40597 20017 ft 304 kts 348°
2026-05-06 23:47 30.26919 -16.40990 20018 ft 306 kts 348°
2026-05-06 23:48 30.29022 -16.41388 20019 ft 305 kts 347°
2026-05-06 23:48 30.31116 -16.41781 20019 ft 304 kts 347°
2026-05-06 23:48 30.33203 -16.42173 20017 ft 303 kts 347°
2026-05-06 23:48 30.35280 -16.42563 20017 ft 302 kts 347°
2026-05-06 23:49 30.37362 -16.42956 20020 ft 308 kts 347°
2026-05-06 23:49 30.39528 -16.43368 20025 ft 331 kts 348°
2026-05-06 23:49 30.41892 -16.43814 20027 ft 347 kts 348°
2026-05-06 23:49 30.44302 -16.44263 20025 ft 353 kts 348°
2026-05-06 23:50 30.46728 -16.44719 20034 ft 353 kts 348°
2026-05-06 23:50 30.51544 -16.45629 20020 ft 352 kts 347°
2026-05-06 23:50 30.53958 -16.46084 20019 ft 351 kts 347°
2026-05-06 23:51 30.56368 -16.46540 20018 ft 351 kts 347°
2026-05-06 23:51 30.58783 -16.46996 20020 ft 351 kts 347°
2026-05-06 23:51 30.61191 -16.47452 20019 ft 351 kts 347°
2026-05-06 23:51 30.63603 -16.47908 20021 ft 351 kts 347°
2026-05-06 23:52 30.66016 -16.48365 20016 ft 352 kts 347°
2026-05-06 23:52 30.68433 -16.48822 20028 ft 352 kts 347°
2026-05-06 23:52 30.70793 -16.49270 20029 ft 353 kts 347°
2026-05-06 23:52 30.73215 -16.49729 20039 ft 353 kts 347°
2026-05-06 23:53 30.75637 -16.50189 20029 ft 352 kts 347°
2026-05-06 23:53 30.78050 -16.50645 20028 ft 350 kts 347°
2026-05-06 23:53 30.80451 -16.51102 20029 ft 349 kts 347°
2026-05-06 23:53 30.82852 -16.51558 20032 ft 351 kts 347°
2026-05-06 23:54 30.85267 -16.52019 20034 ft 353 kts 347°
2026-05-06 23:54 30.87692 -16.52478 20033 ft 353 kts 347°
2026-05-06 23:54 30.90116 -16.52938 20038 ft 352 kts 347°
2026-05-06 23:54 30.92531 -16.53396 20035 ft 351 kts 347°
2026-05-06 23:55 30.94942 -16.53844 20035 ft 351 kts 347°
2026-05-06 23:55 30.97350 -16.54306 20020 ft 350 kts 347°
2026-05-06 23:55 30.99752 -16.54776 20029 ft 351 kts 347°
2026-05-06 23:55 31.02166 -16.55239 19923 ft 353 kts 347°
2026-05-06 23:56 31.04596 -16.55700 19686 ft 353 kts 347°
2026-05-06 23:56 31.06976 -16.56152 19449 ft 349 kts 347°
2026-05-06 23:56 31.09392 -16.56614 19207 ft 346 kts 347°
2026-05-06 23:56 31.11760 -16.57068 18979 ft 344 kts 347°
2026-05-06 23:57 31.14122 -16.57520 18746 ft 344 kts 347°
2026-05-06 23:57 31.16447 -16.57965 18520 ft 343 kts 347°
2026-05-06 23:57 31.18808 -16.58416 18278 ft 343 kts 347°
2026-05-06 23:57 31.21162 -16.58867 18019 ft 342 kts 347°
2026-05-06 23:58 31.23505 -16.59315 17755 ft 340 kts 347°
2026-05-06 23:58 31.25837 -16.59763 17505 ft 338 kts 347°
2026-05-06 23:58 31.28144 -16.60204 17246 ft 334 kts 347°
2026-05-06 23:58 31.30431 -16.60644 16984 ft 331 kts 347°
2026-05-06 23:59 31.32706 -16.61081 16727 ft 331 kts 347°
2026-05-06 23:59 31.34975 -16.61517 16475 ft 329 kts 347°
2026-05-06 23:59 31.37233 -16.61951 16223 ft 328 kts 347°
2026-05-06 23:59 31.39485 -16.62383 15972 ft 327 kts 347°
2026-05-07 00:00 31.41725 -16.62814 15729 ft 325 kts 347°
2026-05-07 00:00 31.43950 -16.63243 15483 ft 324 kts 347°
2026-05-07 00:00 31.46173 -16.63671 15238 ft 324 kts 347°
2026-05-07 00:00 31.48394 -16.64098 14999 ft 322 kts 347°
2026-05-07 00:01 31.50597 -16.64523 14758 ft 320 kts 347°
2026-05-07 00:01 31.52793 -16.64948 14526 ft 319 kts 348°
2026-05-07 00:01 31.54981 -16.65369 14291 ft 317 kts 348°
2026-05-07 00:01 31.57144 -16.65785 14060 ft 312 kts 348°
2026-05-07 00:02 31.59279 -16.66199 13813 ft 311 kts 348°
2026-05-07 00:02 31.61428 -16.66614 13550 ft 313 kts 348°
2026-05-07 00:02 31.63574 -16.67028 13293 ft 311 kts 347°
2026-05-07 00:02 31.65674 -16.67434 13032 ft 309 kts 348°
2026-05-07 00:03 31.67810 -16.67849 12771 ft 312 kts 348°
2026-05-07 00:03 31.69945 -16.68261 12519 ft 310 kts 347°
2026-05-07 00:03 31.72061 -16.68671 12264 ft 307 kts 348°
2026-05-07 00:03 31.74172 -16.69080 12015 ft 307 kts 348°
2026-05-07 00:04 31.76287 -16.69490 11766 ft 308 kts 348°
2026-05-07 00:04 31.78397 -16.69898 11531 ft 306 kts 347°
2026-05-07 00:04 31.80502 -16.70308 11276 ft 308 kts 348°
2026-05-07 00:04 31.82618 -16.70719 11035 ft 309 kts 347°
2026-05-07 00:05 31.84735 -16.71129 10794 ft 308 kts 347°
2026-05-07 00:05 31.86840 -16.71538 10554 ft 306 kts 347°
2026-05-07 00:05 31.88939 -16.71946 10317 ft 306 kts 348°
2026-05-07 00:05 31.91038 -16.72354 10081 ft 305 kts 347°
2026-05-07 00:06 31.93129 -16.72761 9842 ft 303 kts 348°
2026-05-07 00:06 31.95180 -16.73159 9589 ft 294 kts 348°
2026-05-07 00:06 31.97141 -16.73540 9339 ft 285 kts 348°
2026-05-07 00:06 31.99081 -16.73918 9077 ft 280 kts 347°
2026-05-07 00:07 32.00989 -16.74292 8801 ft 277 kts 347°
2026-05-07 00:07 32.02888 -16.74662 8540 ft 277 kts 348°
2026-05-07 00:07 32.04784 -16.75031 8293 ft 276 kts 347°
2026-05-07 00:07 32.06674 -16.75400 8057 ft 274 kts 347°
2026-05-07 00:08 32.08551 -16.75767 7832 ft 273 kts 348°
2026-05-07 00:08 32.10428 -16.76133 7591 ft 274 kts 347°
2026-05-07 00:08 32.12307 -16.76500 7363 ft 273 kts 347°
2026-05-07 00:08 32.14171 -16.76865 7126 ft 271 kts 348°
2026-05-07 00:09 32.16029 -16.77229 6892 ft 270 kts 348°
2026-05-07 00:09 32.17880 -16.77590 6670 ft 269 kts 348°
2026-05-07 00:09 32.19543 -16.77915 6461 ft 268 kts 347°
2026-05-07 00:10 32.21153 -16.78231 6241 ft 266 kts 348°
2026-05-07 00:10 32.22974 -16.78587 5997 ft 264 kts 349°
2026-05-07 00:10 32.24786 -16.78942 5758 ft 263 kts 349°
2026-05-07 00:11 32.26582 -16.79295 5527 ft 260 kts 349°
2026-05-07 00:11 32.28355 -16.79643 5299 ft 257 kts 349°
2026-05-07 00:11 32.30106 -16.79986 4989 ft 253 kts 350°
2026-05-07 00:11 32.31764 -16.80310 4819 ft 233 kts 350°
2026-05-07 00:12 32.33288 -16.80611 4776 ft 211 kts 350°
2026-05-07 00:12 32.34674 -16.80882 4720 ft 194 kts 350°
2026-05-07 00:12 32.35956 -16.81133 4682 ft 179 kts 351°
2026-05-07 00:12 32.37112 -16.81361 4639 ft 158 kts 351°
2026-05-07 00:13 32.38146 -16.81562 4561 ft 144 kts 351°
2026-05-07 00:13 32.39107 -16.81754 4412 ft 136 kts 352°
2026-05-07 00:13 32.40030 -16.81934 4221 ft 134 kts 352°
2026-05-07 00:13 32.40940 -16.82114 4041 ft 131 kts 354°
2026-05-07 00:14 32.41845 -16.82291 3874 ft 132 kts 354°
2026-05-07 00:14 32.42749 -16.82471 3743 ft 129 kts 356°
2026-05-07 00:14 32.43636 -16.82645 3567 ft 129 kts 356°
2026-05-07 00:14 32.44502 -16.82817 3440 ft 123 kts 358°
2026-05-07 00:15 32.45357 -16.82946 3233 ft 125 kts
2026-05-07 00:15 32.46191 -16.82797 3059 ft 120 kts 20°
2026-05-07 00:15 32.46978 -16.82438 2906 ft 126 kts 26°
2026-05-07 00:15 32.47829 -16.82056 2733 ft 134 kts 24°
2026-05-07 00:16 32.48710 -16.81721 2709 ft 130 kts 22°
2026-05-07 00:16 32.49573 -16.81439 2661 ft 129 kts 20°
2026-05-07 00:16 32.50464 -16.81181 2534 ft 136 kts 18°
2026-05-07 00:16 32.51402 -16.80903 2402 ft 137 kts 20°
2026-05-07 00:17 32.52320 -16.80660 2226 ft 136 kts 14°
2026-05-07 00:17 32.53285 -16.80604 1972 ft 139 kts 13°
2026-05-07 00:17 32.54233 -16.80514 1796 ft 138 kts
2026-05-07 00:17 32.55223 -16.80639 1616 ft 144 kts 356°
2026-05-07 00:18 32.56214 -16.80820 1502 ft 145 kts 355°
2026-05-07 00:18 32.57211 -16.80970 1436 ft 142 kts
2026-05-07 00:18 32.58176 -16.80901 1466 ft 138 kts
2026-05-07 00:18 32.59110 -16.80773 1608 ft 137 kts 10°
2026-05-07 00:19 32.60065 -16.80669 1713 ft 139 kts
2026-05-07 00:19 32.61074 -16.80645 1636 ft 153 kts
2026-05-07 00:19 32.62165 -16.80667 1498 ft 156 kts
2026-05-07 00:19 32.63228 -16.80719 1368 ft 153 kts
2026-05-07 00:20 32.64296 -16.80801 1169 ft 155 kts
2026-05-07 00:20 32.65376 -16.80785 957 ft 153 kts
2026-05-07 00:20 32.66339 -16.80478 796 ft 134 kts 18°
2026-05-07 00:20 32.67180 -16.80109 666 ft 122 kts 21°
2026-05-07 00:21 32.67907 -16.79595 477 ft 123 kts 36°
2026-05-07 00:21 32.68546 -16.78896 346 ft 125 kts 36°
2026-05-07 00:21 32.69174 -16.78174 196 ft 122 kts 45°
2026-05-07 00:21 32.69705 -16.77551 172 ft 71 kts 44°
2026-05-07 00:22 32.69928 -16.77280 172 ft 25 kts 54°
2026-05-07 00:22 32.69873 -16.77180 172 ft 17 kts 183°
2026-05-07 00:22 32.69780 -16.77250 172 ft 16 kts 225°
2026-05-07 00:22 32.69708 -16.77339 172 ft 15 kts 226°
2026-05-07 00:23 32.69650 -16.77357 172 ft 7 kts 137°
2026-05-07 00:23 32.69624 -16.77318 172 ft 6 kts 127°
2026-05-07 00:23 32.69603 -16.77314 172 ft 0 kts 214°